Location: Unspecified
(17.6330°N, 0.0000°E)
Time: 09:25:33
(UTC+00:00)

S-56A Canister/Altair - Pass Details

Date: 27 June 2019
Orbit: 632 x 2500 km, 38.9° (Epoch: 19 July)

Event Time Altitude Azimuth Distance (km) Brightness Sun altitude
Rises 21:13:21 0° 304° (WNW) 3,356 11.9 -31.7°
Reaches altitude 10° 21:16:04 10° 301° (WNW) 2,250 10.7 -32.2°
Enters shadow 21:18:55 32° 292° (WNW) 1,155 8.8 -32.7°
Maximum altitude 21:20:59 67° 219° (SW) 703 - -33.0°
Drops below altitude 10° 21:25:20 10° 137° (SE) 2,001 - -33.8°
Sets 21:27:38 0° 134° (SE) 2,947 - -34.2°
